THORAD DELTA 1 DEB, 8168

Orbit data source: Space-Track

THORAD DELTA 1 DEB, 8168 is space debris in SSO originally from a launch on Fri, 15 Nov 1974 UTC launched from the Air Force Western Test Range (AFWTR). Debris objects in space refer to the collection of defunct objects orbiting the Earth. Examples of debris include non-operational satellites, rocket bodies, and fragments generated from explosions, collisions, or faulty payload assembly.

Loading next visibility...
Identifier
8168, 1974-089AJ
Orbit
SSO
Country
Flag of USUS
Related business
Manufacturer
Unknown
Mission
Spacecraft
Bus & Motor
Unknown
Mass
Unknown
Launch date (UTC)
1974-11-15 (51 years ago)
Launch vehicle
Unknown
Launch site
Air Force Western Test Range (AFWTR)
Object type
Payload
Rocket body
Debris
Shape & HBR
Unknown
Radar Cross Section
0.280 m², Medium (>0.1 m² and < 1m²)

Expand to show TLE details & history
Last TLE update: 11 hours ago

TLE from 11 hours ago
0 THORAD DELTA 1 DEB
1 08168U 74089AJ  25260.86343036 -.00000001  00000-0  28567-3 0  9992
2 08168 101.9172 222.0660 0021668  81.3241 335.1463 12.52735103324447
Epoch: 2025-09-17T20:43Z
TLE epoch observation values (Epoch: 2025-09-17T20:43:20.383Z)
Latitude
54.64735°
Longitude
-103.02134°
Altitude
1,446.493 km
Speed
7.151 km/s
True Right ascension
13h 39m 23s
True Declination
54° 29' 57"
Sunlit
Object was in daylight at epoch
Visualization orbit readout
Latitude
Unknown
Longitude
Unknown
Altitude
Unknown
Speed
Unknown
Apparent Right ascension
Unknown
Apparent Declination
Unknown
Sunlit
N/A
Visualization observer readout
Local Sidereal Time
00:30:46
Azimuth
Unknown
Elevation
Unknown
Doppler factor
Unknown
Orbital elements
Apogee altitude
1,467.592 km
Perigee altitude
1,433.665 km
Semi-major axis
7,828.766 km
Eccentricity
0.00217
Inclination
101.9172°
RAAN
222.066°
Arg. of periapsis
81.3241°
True anomaly
335.04168°
Mean anomaly
335.1463°
Eccentric anomaly
335.09402°
Mean motion
3.13331 °/min
Orbital period
114.89 mins
BSTAR
0.00028567
Loading maneuver chart data...
Computing Atmospheric mass density...
Loading historical data...
Loading historical data...
Loading historical data...
Loading historical data...
Loading historical data...
Loading historical data...
Loading historical data...

Documentation

Showing up to 5 results
|